NOAA 16 DEB, 41493

Orbit data source: Space-Track

NOAA 16 DEB, 41493 is space debris in SSO originally from a launch on Thu, 21 Sep 2000 UTC launched from the Air Force Western Test Range (AFWTR). Debris objects in space refer to the collection of defunct objects orbiting the Earth. Examples of debris include non-operational satellites, rocket bodies, and fragments generated from explosions, collisions, or faulty payload assembly.

Loading next visibility...
Identifier
41493, 2000-055LR
Orbit
SSO
Country
Flag of USUS
Related business
Manufacturer
Unknown
Mission
Spacecraft
Bus & Motor
Unknown
Mass
Unknown
Launch date (UTC)
2000-09-21 (26 years ago)
Launch vehicle
Unknown
Launch site
Air Force Western Test Range (AFWTR)
Object type
Payload
Rocket body
Debris
Shape & HBR
Unknown shape, 0.1 m
Radar Cross Section
Medium (>0.1 m² and <1 m²)

Expand to show TLE details & history
Last TLE update: 2 days ago

TLE from 2 days ago
0 NOAA 16 DEB
1 41493U 00055LR  26171.42317144  .00006430  00000-0  15219-2 0  9997
2 41493  98.9160 344.6671 0024767 100.9288 259.4695 14.54257229533698
Epoch: 2026-06-20T10:09Z
TLE epoch observation values (Epoch: 2026-06-20T10:09:22.012Z)
Latitude
-0.00003°
Longitude
-76.31262°
Altitude
717.984 km
Speed
7.495 km/s
True Right ascension
22h 58m 40s
True Declination
0° 00' 00"
Sunlit
Object was in daylight at epoch
Visualization orbit readout
Latitude
Unknown
Longitude
Unknown
Altitude
Unknown
Speed
Unknown
Apparent Right ascension
Unknown
Apparent Declination
Unknown
Sunlit
N/A
Visualization observer readout
Local Sidereal Time
21:41:38
Azimuth
Unknown
Elevation
Unknown
Doppler factor
Unknown
Orbital elements
Apogee altitude
726.453 km
Perigee altitude
691.348 km
Semi-major axis
7,087.038 km
Eccentricity
0.00248
Inclination
98.916°
RAAN
344.6671°
Arg. of periapsis
100.9288°
True anomaly
259.19063°
Mean anomaly
259.4695°
Eccentric anomaly
259.33005°
Mean motion
3.63786 °/min
Orbital period
98.96 mins
BSTAR
0.0015219
Loading maneuver chart data...
Computing Atmospheric mass density...
Loading historical data...
Loading historical data...
Loading historical data...
Loading historical data...
Loading historical data...
Loading historical data...
Loading historical data...

Documentation

Showing up to 5 results
|